Flag for Belgium Weather past 2 weeks in Eupen, Belgium

Now
49 °F

Overcast.


Feels Like: 46 °F
Forecast: 48 / 63 °F
Wind: 6 mph from Southwest

Location: Spa / La Sauveniere

Current Time: Jul 29, 2015 at 8:03:47 AM

Latest Report: Jul 29, 2015 at 6:00 AM


Visibility: 14 mi

Pressure: 29.84 "Hg

Humidity: 90%

Dew point: 46 °F

Location of EupenLocation

Historic Weather in Eupen — Graph

°F

Eupen temperature yesterday

Maximum temperature yesterday: 59 °F (at 3:00 PM)
Minimum temperature yesterday: 51 °F (at 3:00 AM)
Average temperature yesterday: 54 °F

Past Weeks' High & Low Weather Summary

 TemperatureHumidityPressure
High85 °F (Jul 17, 5:00 PM)97% (Jul 19, 5:00 AM)30.16 "Hg (Jul 19, 5:00 AM)
Low47 °F (Jul 26, 6:00 AM)26% (Jul 17, 5:00 PM)29.56 "Hg (Jul 25, 7:00 AM)
Average62 °F78%29.93 "Hg
* Reported Jul 14 6:00 AM — Jul 29 6:00 AM, Eupen, Weather by CustomWeather, © 2015

Note: Actual official high and low records may vary slightly from our data, if they occured in-between our weather recording intervals... More about our weather records

Advertising

Eupen weather history for previous 24 hours

 ConditionsComfort  
Time TempWeatherWind HumidityBarometerVisibility
6:00 AM
Wed, Jul 29
49 °FOvercast.6 mph90%29.84 "Hg14 mi
4:00 AM49 °FLow clouds.6 mph90%29.85 "Hg17 mi
3:00 AM49 °FLow clouds.6 mph90%29.85 "Hg17 mi
2:00 AM50 °FPassing clouds.5 mph88%29.85 "Hg25 mi
1:00 AM51 °FOvercast.6 mph83%29.85 "Hg22 mi
12:00 AM52 °FLight rain. Overcast.6 mph79%29.85 "Hg14 mi
10:00 PM
Tue, Jul 28
52 °FClear.5 mph80%29.84 "Hg16 mi
9:00 PM54 °FSunny.6 mph74%29.83 "Hg19 mi
8:00 PM55 °FOvercast.6 mph70%29.82 "Hg19 mi
7:00 PM55 °FOvercast.8 mph69%29.82 "Hg17 mi
6:00 PM56 °FLight rain. Overcast.6 mph67%29.80 "Hg19 mi
5:00 PM56 °FOvercast.6 mph66%29.81 "Hg19 mi
3:00 PM59 °FOvercast.8 mph55%29.78 "Hg17 mi
2:00 PM59 °FOvercast.7 mph59%29.78 "Hg19 mi
1:00 PM59 °FPartly sunny.8 mph62%29.77 "Hg17 mi
12:00 PM56 °FOvercast.7 mph70%29.78 "Hg16 mi
11:00 AM54 °FOvercast.8 mph75%29.78 "Hg14 mi
10:00 AM53 °FOvercast.7 mph80%29.78 "Hg15 mi
9:00 AM52 °FOvercast.9 mph84%29.78 "Hg12 mi
8:00 AM51 °FOvercast.7 mph85%29.77 "Hg14 mi
Weather by CustomWeather, © 2015

See weather overviewHow to use our weather pages